• In Hungary
  • List of Countries
  • For 7 days
  • Water Temperature
  • Satellite Maps
  • Weather Map
  • News
  • Weather Widgets
  • user-avatar
    Login

    Hourly Weather Barvinok

    Today, 19 January, Friday

    Time Temperature Precipitation Wind Pressure Humidity
    00:00 -4°C° 0.9 mm 7 mps 728 mmHg 85%
    01:00 -4°C° 0.9 mm 7 mps 727 mmHg 86%
    02:00 -2°C° 0 mm 5 mps 727 mmHg 88%
    03:00 -2°C° 0.2 mm 5 mps 726 mmHg 86%
    04:00 -3°C° 0.2 mm 6 mps 726 mmHg 83%
    05:00 -3°C° 0.2 mm 7 mps 726 mmHg 81%
    06:00 -2°C° 0.2 mm 7 mps 726 mmHg 81%
    07:00 -2°C° 0.2 mm 7 mps 726 mmHg 82%
    08:00 -2°C° 0.2 mm 7 mps 726 mmHg 82%
    09:00 -2°C° 0.2 mm 7 mps 726 mmHg 83%
    10:00 -2°C° 0.2 mm 7 mps 726 mmHg 83%
    11:00 -2°C° 0.2 mm 8 mps 727 mmHg 83%
    12:00 -2°C° 0.3 mm 8 mps 727 mmHg 83%
    13:00 -3°C° 0.3 mm 9 mps 728 mmHg 83%
    14:00 -3°C° 0.3 mm 9 mps 728 mmHg 82%
    15:00 -3°C° 0.2 mm 9 mps 729 mmHg 82%
    16:00 -3°C° 0.2 mm 9 mps 729 mmHg 82%
    17:00 -4°C° 0.2 mm 9 mps 730 mmHg 82%
    18:00 -4°C° 0 mm 8 mps 731 mmHg 83%
    19:00 -4°C° 0 mm 8 mps 732 mmHg 83%
    20:00 -3°C° 0 mm 7 mps 732 mmHg 84%
    21:00 -4°C° 0 mm 7 mps 733 mmHg 85%
    22:00 -4°C° 0 mm 6 mps 734 mmHg 86%
    23:00 -4°C° 0 mm 6 mps 734 mmHg 87%

    Tomorrow, 20 January, Saturday

    Time Temperature Precipitation Wind Pressure Humidity
    00:00 -5°C° 0 mm 6 mps 735 mmHg 88%
    01:00 -5°C° 0 mm 5 mps 736 mmHg 89%
    02:00 -5°C° 0 mm 5 mps 736 mmHg 90%
    03:00 -6°C° 0 mm 5 mps 736 mmHg 91%
    04:00 -5°C° 0 mm 4 mps 736 mmHg 91%
    05:00 -5°C° 0 mm 3 mps 736 mmHg 92%
    06:00 -5°C° 0 mm 3 mps 737 mmHg 93%
    07:00 -6°C° 0 mm 3 mps 737 mmHg 93%
    08:00 -5°C° 0 mm 2 mps 737 mmHg 94%
    09:00 -5°C° 0 mm 2 mps 737 mmHg 93%
    10:00 -4°C° 0 mm 2 mps 737 mmHg 92%
    11:00 -3°C° 0 mm 2 mps 738 mmHg 91%
    12:00 -3°C° 0 mm 2 mps 737 mmHg 90%
    13:00 -2°C° 0 mm 2 mps 737 mmHg 89%
    14:00 -2°C° 0 mm 2 mps 737 mmHg 87%
    15:00 -2°C° 0 mm 2 mps 737 mmHg 88%
    16:00 -3°C° 0 mm 2 mps 737 mmHg 89%
    17:00 -1°C° 0 mm 1 mps 736 mmHg 90%
    18:00 -4°C° 0 mm 2 mps 736 mmHg 90%
    19:00 -4°C° 0 mm 2 mps 736 mmHg 91%
    20:00 -4°C° 0 mm 2 mps 736 mmHg 91%
    21:00 -5°C° 0.1 mm 3 mps 736 mmHg 91%
    22:00 -5°C° 0.1 mm 3 mps 736 mmHg 91%
    23:00 -5°C° 0.1 mm 3 mps 736 mmHg 92%

    Day after tomorrow, 21 January, Sunday

    Time Temperature Precipitation Wind Pressure Humidity
    00:00 -5°C° 0.1 mm 3 mps 735 mmHg 92%
    01:00 -4°C° 0.1 mm 2 mps 735 mmHg 93%
    02:00 -4°C° 0.1 mm 2 mps 735 mmHg 94%
    03:00 -4°C° 0.1 mm 2 mps 735 mmHg 94%
    04:00 -4°C° 0.1 mm 2 mps 735 mmHg 95%
    05:00 -4°C° 0.1 mm 2 mps 734 mmHg 95%
    06:00 -2°C° 0.1 mm 1 mps 735 mmHg 95%
    07:00 -2°C° 0.1 mm 1 mps 735 mmHg 95%
    08:00 -2°C° 0.1 mm 1 mps 735 mmHg 95%
    09:00 -2°C° 0.1 mm 1 mps 735 mmHg 95%
    10:00 -1°C° 0.1 mm 1 mps 736 mmHg 94%
    11:00 0°C° 0.1 mm 1 mps 736 mmHg 94%
    12:00 0°C° 0 mm 1 mps 736 mmHg 93%
    13:00 0°C° 0 mm 1 mps 736 mmHg 93%
    14:00 0°C° 0 mm 1 mps 736 mmHg 92%
    15:00 0°C° 0.1 mm 1 mps 736 mmHg 93%
    16:00 0°C° 0.1 mm 1 mps 737 mmHg 94%
    17:00 0°C° 0.1 mm 1 mps 737 mmHg 94%
    18:00 -1°C° 0 mm 1 mps 737 mmHg 95%
    19:00 -3°C° 0 mm 2 mps 738 mmHg 95%
    20:00 -3°C° 0 mm 2 mps 738 mmHg 95%
    21:00 -3°C° 0 mm 2 mps 738 mmHg 95%
    22:00 -4°C° 0 mm 2 mps 738 mmHg 95%
    23:00 -4°C° 0 mm 2 mps 739 mmHg 95%

    22 January, Monday

    Time Temperature Precipitation Wind Pressure Humidity
    00:00 -4°C° 0 mm 2 mps 739 mmHg 95%
    01:00 -5°C° 0 mm 2 mps 739 mmHg 96%
    02:00 -5°C° 0 mm 2 mps 739 mmHg 96%
    03:00 -6°C° 0 mm 3 mps 740 mmHg 96%
    04:00 -6°C° 0 mm 3 mps 740 mmHg 96%
    05:00 -5°C° 0 mm 3 mps 740 mmHg 95%
    06:00 -6°C° 0 mm 3 mps 741 mmHg 95%
    07:00 -6°C° 0 mm 3 mps 741 mmHg 95%
    08:00 -6°C° 0 mm 3 mps 742 mmHg 95%
    09:00 -5°C° 0 mm 3 mps 742 mmHg 94%
    10:00 -5°C° 0 mm 3 mps 743 mmHg 94%
    11:00 -5°C° 0 mm 3 mps 743 mmHg 93%
    12:00 -4°C° 0 mm 2 mps 744 mmHg 92%
    13:00 -4°C° 0 mm 2 mps 744 mmHg 91%
    14:00 -3°C° 0 mm 2 mps 744 mmHg 90%
    15:00 -4°C° 0 mm 2 mps 744 mmHg 90%
    16:00 -4°C° 0 mm 2 mps 744 mmHg 91%
    17:00 -4°C° 0 mm 2 mps 744 mmHg 92%
    18:00 -5°C° 0 mm 2 mps 744 mmHg 92%
    19:00 -5°C° 0 mm 2 mps 744 mmHg 92%
    20:00 -6°C° 0 mm 2 mps 744 mmHg 91%
    21:00 -6°C° 0 mm 2 mps 744 mmHg 91%
    22:00 -6°C° 0 mm 2 mps 744 mmHg 90%
    23:00 -7°C° 0 mm 3 mps 744 mmHg 90%

    23 January, Tuesday

    Time Temperature Precipitation Wind Pressure Humidity
    00:00 -7°C° 0 mm 3 mps 744 mmHg 90%
    01:00 -7°C° 0 mm 3 mps 744 mmHg 90%
    02:00 -7°C° 0 mm 3 mps 744 mmHg 90%
    03:00 -8°C° 0 mm 3 mps 744 mmHg 91%
    04:00 -8°C° 0 mm 3 mps 744 mmHg 91%
    05:00 -9°C° 0 mm 3 mps 744 mmHg 92%
    06:00 -9°C° 0 mm 3 mps 744 mmHg 92%
    07:00 -10°C° 0 mm 4 mps 745 mmHg 92%
    08:00 -11°C° 0 mm 4 mps 745 mmHg 92%
    09:00 -10°C° 0 mm 4 mps 745 mmHg 91%
    10:00 -10°C° 0 mm 4 mps 746 mmHg 89%
    11:00 -9°C° 0 mm 4 mps 746 mmHg 88%
    12:00 -9°C° 0 mm 4 mps 746 mmHg 86%
    13:00 -8°C° 0 mm 4 mps 746 mmHg 85%
    14:00 -8°C° 0 mm 4 mps 746 mmHg 84%
    15:00 -8°C° 0 mm 4 mps 746 mmHg 85%
    16:00 -8°C° 0 mm 4 mps 746 mmHg 86%
    17:00 -9°C° 0 mm 4 mps 747 mmHg 87%
    18:00 -9°C° 0 mm 4 mps 747 mmHg 86%
    19:00 -9°C° 0 mm 4 mps 747 mmHg 86%
    20:00 -9°C° 0 mm 4 mps 747 mmHg 85%
    21:00 -9°C° 0 mm 4 mps 747 mmHg 85%
    22:00 -9°C° 0 mm 4 mps 747 mmHg 85%
    23:00 -9°C° 0 mm 4 mps 747 mmHg 85%

    24 January, Wednesday

    Time Temperature Precipitation Wind Pressure Humidity
    00:00 -9°C° 0.1 mm 4 mps 747 mmHg 85%
    01:00 -9°C° 0.1 mm 4 mps 747 mmHg 86%
    02:00 -9°C° 0.1 mm 4 mps 747 mmHg 87%
    03:00 -9°C° 0.1 mm 4 mps 747 mmHg 88%
    04:00 -9°C° 0.1 mm 4 mps 747 mmHg 89%
    05:00 -9°C° 0.1 mm 4 mps 747 mmHg 90%
    06:00 -8°C° 0.1 mm 4 mps 748 mmHg 91%
    07:00 -7°C° 0.1 mm 3 mps 748 mmHg 91%
    08:00 -7°C° 0.1 mm 3 mps 748 mmHg 92%
    09:00 -7°C° 0.1 mm 3 mps 749 mmHg 92%
    10:00 -6°C° 0.1 mm 3 mps 749 mmHg 92%
    11:00 -7°C° 0.1 mm 4 mps 749 mmHg 92%
    12:00 -6°C° 0.1 mm 3 mps 750 mmHg 91%
    13:00 -5°C° 0.1 mm 3 mps 750 mmHg 91%
    14:00 -5°C° 0.1 mm 3 mps 750 mmHg 91%
    15:00 -5°C° 0 mm 3 mps 751 mmHg 91%
    16:00 -5°C° 0 mm 3 mps 751 mmHg 91%
    17:00 -6°C° 0 mm 3 mps 752 mmHg 92%
    18:00 -6°C° 0 mm 3 mps 752 mmHg 92%
    19:00 -6°C° 0 mm 3 mps 752 mmHg 91%
    20:00 -7°C° 0 mm 3 mps 753 mmHg 91%
    21:00 -7°C° 0 mm 3 mps 753 mmHg 91%
    22:00 -7°C° 0 mm 3 mps 753 mmHg 90%
    23:00 -7°C° 0 mm 3 mps 754 mmHg 89%
    Show more